
SB KEPS @ AMSAT $ORB07067.N 2Line Orbital Elements 07067.AMSAT
HR AMSAT ORBITAL ELEMENTS FOR AMATEUR SATELLITES IN NASA FORMAT FROM WA5QGD FORT WORTH,TX March 8, 2007 Send SUBSCRIBE KEPS/UNSUBSCRIBE KEPS to [email protected] only BID: ORB07067.N
DECODE 2-LINE ELSETS WITH THE FOLLOWING KEY: 1 AAAAAU 00 0 0 BBBBB.BBBBBBBB .CCCCCCCC 00000-0 00000-0 0 DDDZ 2 AAAAA EEE.EEEE FFF.FFFF GGGGGGG HHH.HHHH III.IIII JJ.JJJJJJJJKKKKKZ KEY: A-CATALOGNUM B-EPOCHTIME C-DECAY D-ELSETNUM E-INCLINATION F-RAAN G-ECCENTRICITY H-ARGPERIGEE I-MNANOM J-MNMOTION K-ORBITNUM Z-CHECKSUM
TO ALL RADIO AMATEURS BT
AO-07 1 07530U 74089B 07066.62771980 -.00000028 00000-0 10000-3 0 08244 2 07530 101.5307 107.5766 0012216 095.1387 265.1082 12.53572585478399 AO-10 1 14129U 83058B 07066.05814622 .00000046 00000-0 10000-3 0 3637 2 14129 026.8461 288.2343 6053978 003.5955 359.4305 02.05868889178460 UO-11 1 14781U 84021B 07067.62600424 .00000376 00000-0 57628-4 0 3194 2 14781 098.1981 088.3469 0009801 130.3523 229.8574 14.79529436234862 RS-10/11 1 18129U 87054A 07066.66726330 .00000043 00000-0 30551-4 0 02445 2 18129 082.9280 133.2882 0013446 080.6019 279.6659 13.72784885987305 RS-15 1 23439U 94085A 07066.78539806 -.00000039 00000-0 10597-3 0 159 2 23439 064.8187 170.9063 0162187 208.6366 150.5575 11.27551795502265 FO-29 1 24278U 96046B 07066.96186192 -.00000047 00000-0 -10244-4 0 04846 2 24278 098.5373 040.2546 0350939 345.7837 013.3618 13.52928483521215 SO-33 1 25509U 98061B 07067.39656781 .00000230 00000-0 31567-4 0 8798 2 25509 031.4331 075.5935 0355477 266.2129 089.7788 14.28149242436839 AO-40 1 26609U 00072B 07065.63074423 .00000028 00000-0 10000-3 0 8475 2 26609 004.8647 168.3114 7991103 283.6226 007.0646 01.25586735 29159 VO-52 1 28650U 05017B 07066.24448487 .00000441 00000-0 63017-4 0 05732 2 28650 097.8399 139.2071 0026506 223.6979 136.2143 14.81275825099324 PO-63 1 29712U 07001D 07067.61958221 .00000640 00000-0 92225-4 0 1696 2 29712 097.9336 128.1344 0015551 095.5475 264.7519 14.79579527 8463 AO-16 1 20439U 90005D 07066.47838508 .00000028 00000-0 25604-4 0 09838 2 20439 098.1933 066.6538 0011612 126.7479 233.4778 14.31752371893990 LO-19 1 20442U 90005G 07067.58201370 -.00000020 00000-0 75873-5 0 9103 2 20442 098.1829 077.1624 0012731 123.1660 237.0748 14.31993303894290 AO-27 1 22825U 93061C 07066.47480725 .00000002 00000-0 17196-4 0 06339 2 22825 098.3188 040.8494 0007952 197.7288 162.3627 14.29201039700962 IO-26 1 22826U 93061D 07066.88959619 .00000023 00000-0 25190-4 0 3285 2 22826 098.3126 042.3595 0008577 193.8510 166.2440 14.29447058701109 PO-28 1 22829U 93061G 07066.47532079 -.00000037 00000-0 16076-5 0 06081 2 22829 098.3024 043.1444 0009983 168.8160 191.3253 14.30145131701274 GO-32 1 25397U 98043D 07067.61970369 -.00000132 00000-0 -39927-4 0 2480 2 25397 098.4274 119.1706 0001597 130.6969 229.4367 14.23120828449857 MO-46 1 26548U 00057D 07067.58047671 .00000177 00000-0 39683-4 0 7407 2 26548 064.5576 133.9036 0027007 210.7904 149.1676 14.83108424348615 NO-44 1 26931U 01043C 07066.91710747 -.00000228 00000-0 -56599-4 0 05396 2 26931 067.0521 048.3525 0006360 276.2143 083.8248 14.29474127283626 SO-50 1 27607U 02058C 07066.36779275 .00000121 00000-0 41089-4 0 02591 2 27607 064.5583 034.1598 0042185 032.5172 327.8467 14.71234237226141 CO-55 1 27844U 03031E 07066.46360023 .00000069 00000-0 52315-4 0 09776 2 27844 098.7208 076.1456 0010576 028.8423 331.3342 14.20495861191039 CO-57 1 27848U 03031J 07067.52796649 .00000053 00000-0 45171-4 0 9398 2 27848 098.7200 076.4280 0010304 028.8063 331.3676 14.20317240191160 AO-51 1 28375U 04025K 07066.11807032 .00000013 00000-0 16649-4 0 07641 2 28375 098.1281 110.6323 0084238 131.0817 229.7690 14.40557520141024 CO-56 1 28941U 06005C 07066.81704054 .00018826 25960-5 21247-3 0 03752 2 28941 098.1434 116.8881 0239923 270.9177 086.4577 15.35497958057857 HO-59 1 29484U 06041F 07067.61252966 .00031365 28717-5 25077-3 0 2215 2 29484 098.3009 102.6579 0234875 264.3645 093.1362 15.43229980 25528 NO-60 1 29661U 06055C 07066.94139076 .00090236 14152-4 28929-3 0 00966 2 29661 051.6382 262.0245 0010254 301.4226 058.5821 15.90927647012217 NO-61 1 29664U 06055F 07067.83188044 .00030859 00000-0 12750-3 0 779 2 29664 051.6326 258.9337 0014438 309.1567 050.8165 15.85439315 12204 NOAA-10 1 16969U 86073A 07066.65676147 -.00000102 00000-0 -23201-4 0 05775 2 16969 098.7524 083.7460 0013255 102.7348 257.5338 14.27318507064749 NOAA-11 1 19531U 88089A 07066.79152798 .00000268 00000-0 16138-3 0 5724 2 19531 098.8119 157.2222 0011223 322.8560 037.1829 14.14838398951816 NOAA-12 1 21263U 91032A 07067.09033672 .00000097 00000-0 59773-4 0 665 2 21263 098.7509 064.5110 0013305 044.2325 315.9920 14.25524138821840 MET-3/5 1 21655U 91056A 07066.98094200 .00000051 00000-0 10000-3 0 02444 2 21655 082.5481 074.4441 0014385 099.0932 261.1820 13.17010205748083 MET-2/21 1 22782U 93055A 07067.56187398 .00000139 00000-0 11234-3 0 7670 2 22782 082.5467 121.7542 0023095 154.7443 205.4844 13.83615806682604 OKEAN-4 1 23317U 94066A 07067.47683318 .00000355 00000-0 41221-4 0 2058 2 23317 082.5394 030.4814 0020908 221.5079 138.4578 14.82475461669137 NOAA-14 1 23455U 94089A 07066.87123128 .00000317 00000-0 19180-3 0 05551 2 23455 099.0009 132.4705 0009449 031.3675 328.8068 14.13704591628322 SICH-1 1 23657U 95046A 07067.51593419 .00000204 00000-0 22945-4 0 76 2 23657 082.5312 171.3738 0023216 210.8082 149.1764 14.81458408621128 NOAA-15 1 25338U 98030A 07067.10611002 .00000144 00000-0 80371-4 0 9118 2 25338 098.5291 066.6489 0010058 328.4346 031.6259 14.24629914458296 RESURS 1 25394U 98043A 07067.73926296 .00000009 00000-0 22297-4 0 5891 2 25394 098.4564 126.1889 0002168 103.7511 256.3909 14.24129288450050 FENGYUN1 1 25730U 99025A 07067.90119853 .00000298 00000-0 20178-3 0 12 2 25730 098.6849 055.5945 0022542 049.1912 311.1216 14.07433870403354 OKEAN-0 1 25860U 99039A 07066.57167294 .00000071 00000-0 18204-4 0 09976 2 25860 097.7315 073.5680 0001386 041.4586 318.6724 14.73434907410536 NOAA-16 1 26536U 00055A 07067.10176089 .00000068 00000-0 61720-4 0 3240 2 26536 099.1069 042.3359 0011218 097.6110 262.6306 14.12410440332836 NOAA-17 1 27453U 02032A 07066.90707677 -.00000027 00000-0 69832-5 0 03379 2 27453 098.5891 138.6009 0011924 033.2262 326.9661 14.23858725244306 NOAA-18 1 28654U 05018A 07066.85439834 -.00000151 00000-0 -59539-4 0 08748 2 28654 098.8205 009.8870 0013964 192.3555 167.7273 14.11041507092563 HUBBLE 1 20580U 90037B 07066.95546546 .00000488 00000-0 25096-4 0 08442 2 20580 028.4650 130.2034 0003794 103.7107 256.3897 15.00201926724747 UARS 1 21701U 91063B 07066.93729612 .00008460 00000-0 14643-3 0 00156 2 21701 056.9754 032.9828 0095109 000.5341 359.5807 15.46981783850077 PO-34 1 25520U 98064B 07066.39932035 .00000597 00000-0 19709-4 0 06970 2 25520 028.4597 069.9714 0005689 223.5990 136.4157 15.16940211462059 ISS 1 25544U 98067A 07067.96717499 .00022832 00000-0 12695-3 0 7791 2 25544 051.6338 261.8502 0020419 294.2550 216.7009 15.79105182474947 OO-38 1 26063U 00004C 07067.47427913 -.00000013 00000-0 15803-4 0 8577 2 26063 100.2221 051.5104 0037280 083.1845 277.3579 14.35797901372594 NO-45 1 26932U 01043D 07066.91736148 -.00000026 00000-0 22185-4 0 05445 2 26932 067.0514 048.1034 0004872 288.4165 071.6409 14.29550865283669 UWE-1 1 28892U 05043C 07067.63760588 .00000184 00000-0 48360-4 0 6944 2 28892 098.1419 326.2230 0018404 066.9645 293.3515 14.59472563 72546 CO-58 1 28895U 05043F 07066.17994431 .00000083 00000-0 27239-4 0 06750 2 28895 098.1450 324.9653 0018845 072.3365 287.9901 14.59521136072210 NCUBE2 1 28897U 05043H 07066.67730821 .00000142 00000-0 39437-4 0 01965 2 28897 098.1425 325.4199 0018261 070.8711 289.4471 14.59681697064562 NMARS 1 29662U 06055D 07067.59840374 .00132423 17805-4 37552-3 0 1055 2 29662 051.6333 258.1353 0010252 298.7716 061.2265 15.93054128 12211 FCAL 1 29667U 06055J 07067.85081515 .00019674 00000-0 86384-4 0 754 2 29667 051.6322 259.0655 0015355 314.1503 045.8237 15.84463157 12072 /EX
participants (1)
-
Ray Hoad